Preview of NWS' New Version of Forecast
This preview is not operational and should not be used for support decisions.

Regional Weather Roundup (RWR)

Issued by National Weather Service (NWS)

                            
000
ASUS44 KMEG 170000
RWRTN 
TENNESSEE HOURLY STATE WEATHER ROUNDUP
NATIONAL WEATHER SERVICE MEMPHIS TN
600 PM CST SAT FEB 16 2019

TNZ002-004-019-021-049-052-054-088>092-170100-
WEST TENNESSEE
  
CITY           SKY/WX    TMP DP  RH WIND       PRES   REMARKS
MEMPHIS INTL   CLOUDY    39  33  79 E14       29.82F WCI  31          
NWS MEMPHIS      N/A     38 N/A N/A MISG        N/A                   
JACKSON        MOCLDY    39  32  76 VRB3      29.89R                  
DYERSBURG      CLOUDY    35  31  85 NE8       29.90S WCI  29          
$$

TNZ008-025-027-028-033-062-065-066-170100-
NORTH MIDDLE TENNESSEE
  
CITY           SKY/WX    TMP DP  RH WIND       PRES   REMARKS
NASHVILLE      CLOUDY    42  34  73 SE7       29.90R                  
CLARKSVILLE    FAIR      37  30  75 CALM      29.90S                  
SMYRNA         FAIR      38  34  85 SE6       29.91R WCI  33          
CROSSVILLE     CLOUDY    35  33  92 E6        29.86F WCI  30          
$$

TNZ061-075-076-078-094-096-097-170100-
SOUTH MIDDLE TENNESSEE
  
CITY           SKY/WX    TMP DP  RH WIND       PRES   REMARKS
$$

TNZ017-018-042-046-047-170100-
NORTHEAST TENNESSEE
  
CITY           SKY/WX    TMP DP  RH WIND       PRES   REMARKS
TRI CITIES     MOCLDY    42  36  79 VRB3      29.88R                  
$$

TNZ012-013-036-069-073-074-170100-
CENTRAL EAST TENNESSEE
  
CITY           SKY/WX    TMP DP  RH WIND       PRES   REMARKS
KNOXVILLE      CLOUDY    44  38  79 N6        29.86R                  
OAK RIDGE      CLOUDY    45  38  76 NE5       29.89S                  
$$

TNZ083-085-099-170100-
SOUTHEAST TENNESSEE
  
CITY           SKY/WX    TMP DP  RH WIND       PRES   REMARKS
CHATTANOOGA    CLOUDY    49  41  74 NE6       29.86R                  
$$

SKY/WX REPORTED AS FAIR MEANS FEW OR NO CLOUDS BELOW
12 THOUSAND FEET.